• en France
  • Liste des pays
  • À 7 jours
  • Température de l'eau
  • Carte satellitaire
  • Carte météo
  • Widgets météo
  • user-avatar
    Se connecter

    Météo par heure à Rechytsa

    Ce jour, 22 Juin, Vendredi

    Heure Température Précipitation Vent Pression Humidité
    00:00 +21°C° 0 mm 4 m/s 746 mmHg 81%
    01:00 +21°C° 0 mm 4 m/s 746 mmHg 83%
    02:00 +20°C° 0 mm 3 m/s 745 mmHg 82%
    03:00 +20°C° 0,2 mm 3 m/s 745 mmHg 84%
    04:00 +20°C° 0,2 mm 3 m/s 745 mmHg 86%
    05:00 +20°C° 0,2 mm 3 m/s 745 mmHg 89%
    06:00 +21°C° 0,7 mm 4 m/s 745 mmHg 87%
    07:00 +22°C° 0,7 mm 4 m/s 745 mmHg 85%
    08:00 +25°C° 0,7 mm 4 m/s 745 mmHg 83%
    09:00 +25°C° 1,4 mm 4 m/s 745 mmHg 83%
    10:00 +25°C° 1,4 mm 4 m/s 745 mmHg 82%
    11:00 +25°C° 1,4 mm 5 m/s 745 mmHg 82%
    12:00 +22°C° 0,8 mm 5 m/s 746 mmHg 84%
    13:00 +21°C° 0,8 mm 5 m/s 746 mmHg 85%
    14:00 +19°C° 0,8 mm 5 m/s 746 mmHg 87%
    15:00 +19°C° 0,2 mm 5 m/s 746 mmHg 84%
    16:00 +19°C° 0,2 mm 4 m/s 747 mmHg 80%
    17:00 +18°C° 0,2 mm 4 m/s 747 mmHg 76%
    18:00 +18°C° 0 mm 4 m/s 747 mmHg 77%
    19:00 +17°C° 0 mm 3 m/s 747 mmHg 78%
    20:00 +16°C° 0 mm 3 m/s 747 mmHg 79%
    21:00 +14°C° 0 mm 3 m/s 748 mmHg 79%
    22:00 +13°C° 0 mm 3 m/s 748 mmHg 79%
    23:00 +13°C° 0 mm 3 m/s 748 mmHg 79%

    Demain, 23 Juin, Samedi

    Heure Température Précipitation Vent Pression Humidité
    00:00 +13°C° 0 mm 3 m/s 748 mmHg 78%
    01:00 +13°C° 0 mm 3 m/s 748 mmHg 77%
    02:00 +13°C° 0 mm 3 m/s 748 mmHg 76%
    03:00 +13°C° 0,2 mm 3 m/s 748 mmHg 79%
    04:00 +13°C° 0,2 mm 3 m/s 747 mmHg 81%
    05:00 +13°C° 0,2 mm 3 m/s 747 mmHg 84%
    06:00 +13°C° 0,3 mm 4 m/s 747 mmHg 86%
    07:00 +13°C° 0,3 mm 4 m/s 747 mmHg 88%
    08:00 +12°C° 0,3 mm 4 m/s 747 mmHg 91%
    09:00 +12°C° 0,4 mm 4 m/s 747 mmHg 91%
    10:00 +12°C° 0,4 mm 5 m/s 747 mmHg 92%
    11:00 +12°C° 0,4 mm 5 m/s 747 mmHg 92%
    12:00 +12°C° 0,2 mm 5 m/s 747 mmHg 91%
    13:00 +10°C° 0,2 mm 5 m/s 747 mmHg 91%
    14:00 +10°C° 0,2 mm 5 m/s 747 mmHg 90%
    15:00 +10°C° 0,3 mm 5 m/s 747 mmHg 90%
    16:00 +10°C° 0,3 mm 4 m/s 747 mmHg 91%
    17:00 +10°C° 0,3 mm 4 m/s 746 mmHg 92%
    18:00 +10°C° 0,5 mm 4 m/s 746 mmHg 93%
    19:00 +10°C° 0,5 mm 4 m/s 746 mmHg 94%
    20:00 +10°C° 0,5 mm 4 m/s 746 mmHg 95%
    21:00 +10°C° 0,3 mm 4 m/s 746 mmHg 95%
    22:00 +10°C° 0,3 mm 3 m/s 746 mmHg 95%
    23:00 +9°C° 0,3 mm 3 m/s 746 mmHg 95%

    Après-demain, 24 Juin, Dimanche

    Heure Température Précipitation Vent Pression Humidité
    00:00 +10°C° 0,3 mm 3 m/s 746 mmHg 95%
    01:00 +10°C° 0,3 mm 3 m/s 746 mmHg 95%
    02:00 +10°C° 0,3 mm 3 m/s 746 mmHg 96%
    03:00 +10°C° 0,3 mm 3 m/s 746 mmHg 96%
    04:00 +10°C° 0,3 mm 3 m/s 746 mmHg 96%
    05:00 +10°C° 0,3 mm 3 m/s 746 mmHg 96%
    06:00 +11°C° 0 mm 3 m/s 746 mmHg 91%
    07:00 +13°C° 0 mm 3 m/s 747 mmHg 86%
    08:00 +14°C° 0 mm 3 m/s 747 mmHg 81%
    09:00 +17°C° 0,3 mm 4 m/s 747 mmHg 75%
    10:00 +18°C° 0,3 mm 4 m/s 747 mmHg 70%
    11:00 +19°C° 0,3 mm 4 m/s 747 mmHg 64%
    12:00 +19°C° 0,5 mm 4 m/s 747 mmHg 64%
    13:00 +20°C° 0,5 mm 4 m/s 748 mmHg 63%
    14:00 +20°C° 0,5 mm 4 m/s 748 mmHg 62%
    15:00 +20°C° 0,2 mm 4 m/s 748 mmHg 61%
    16:00 +20°C° 0,2 mm 3 m/s 748 mmHg 61%
    17:00 +20°C° 0,2 mm 3 m/s 748 mmHg 60%
    18:00 +18°C° 0 mm 2 m/s 748 mmHg 66%
    19:00 +17°C° 0 mm 2 m/s 749 mmHg 71%
    20:00 +15°C° 0 mm 1 m/s 749 mmHg 77%
    21:00 +15°C° 0 mm 1 m/s 749 mmHg 79%
    22:00 +14°C° 0 mm 2 m/s 750 mmHg 81%
    23:00 +13°C° 0 mm 2 m/s 750 mmHg 84%

    25 Juin, Lundi

    Heure Température Précipitation Vent Pression Humidité
    00:00 +12°C° 0 mm 2 m/s 750 mmHg 86%
    01:00 +12°C° 0 mm 2 m/s 750 mmHg 88%
    02:00 +10°C° 0 mm 2 m/s 751 mmHg 90%
    03:00 +10°C° 0 mm 2 m/s 751 mmHg 90%
    04:00 +10°C° 0 mm 2 m/s 751 mmHg 90%
    05:00 +10°C° 0 mm 2 m/s 751 mmHg 91%
    06:00 +13°C° 0 mm 2 m/s 752 mmHg 83%
    07:00 +15°C° 0 mm 2 m/s 752 mmHg 76%
    08:00 +17°C° 0 mm 2 m/s 752 mmHg 68%
    09:00 +19°C° 0 mm 2 m/s 752 mmHg 63%
    10:00 +20°C° 0 mm 3 m/s 752 mmHg 58%
    11:00 +21°C° 0 mm 3 m/s 752 mmHg 53%
    12:00 +22°C° 0 mm 3 m/s 752 mmHg 51%
    13:00 +22°C° 0 mm 3 m/s 752 mmHg 50%
    14:00 +24°C° 0 mm 3 m/s 752 mmHg 48%
    15:00 +24°C° 0 mm 3 m/s 752 mmHg 49%
    16:00 +22°C° 0 mm 3 m/s 752 mmHg 50%
    17:00 +22°C° 0 mm 3 m/s 752 mmHg 50%
    18:00 +21°C° 0 mm 2 m/s 753 mmHg 56%
    19:00 +19°C° 0 mm 2 m/s 753 mmHg 62%
    20:00 +19°C° 0 mm 1 m/s 753 mmHg 67%
    21:00 +16°C° 0 mm 1 m/s 753 mmHg 70%
    22:00 +15°C° 0 mm 1 m/s 753 mmHg 73%
    23:00 +14°C° 0 mm 1 m/s 754 mmHg 76%

    26 Juin, Mardi

    Heure Température Précipitation Vent Pression Humidité
    00:00 +14°C° 0 mm 1 m/s 754 mmHg 79%
    01:00 +13°C° 0 mm 1 m/s 754 mmHg 81%
    02:00 +13°C° 0 mm 1 m/s 754 mmHg 84%
    03:00 +13°C° 0 mm 1 m/s 754 mmHg 84%
    04:00 +13°C° 0 mm 1 m/s 754 mmHg 84%
    05:00 +13°C° 0 mm 1 m/s 754 mmHg 85%
    06:00 +15°C° 0 mm 1 m/s 754 mmHg 78%
    07:00 +18°C° 0 mm 1 m/s 754 mmHg 70%
    08:00 +20°C° 0 mm 1 m/s 754 mmHg 63%
    09:00 +20°C° 0 mm 2 m/s 754 mmHg 58%
    10:00 +21°C° 0 mm 2 m/s 754 mmHg 53%
    11:00 +23°C° 0 mm 2 m/s 754 mmHg 48%
    12:00 +24°C° 0 mm 2 m/s 754 mmHg 48%
    13:00 +24°C° 0 mm 2 m/s 753 mmHg 47%
    14:00 +24°C° 0 mm 2 m/s 753 mmHg 47%
    15:00 +24°C° 0 mm 2 m/s 753 mmHg 48%
    16:00 +24°C° 0 mm 2 m/s 753 mmHg 48%
    17:00 +24°C° 0 mm 2 m/s 753 mmHg 49%
    18:00 +21°C° 0,1 mm 2 m/s 752 mmHg 56%
    19:00 +19°C° 0,1 mm 2 m/s 752 mmHg 64%
    20:00 +19°C° 0,1 mm 1 m/s 752 mmHg 71%
    21:00 +18°C° 0 mm 1 m/s 752 mmHg 74%
    22:00 +16°C° 0 mm 1 m/s 752 mmHg 77%
    23:00 +15°C° 0 mm 1 m/s 752 mmHg 80%

    27 Juin, Mercredi

    Heure Température Précipitation Vent Pression Humidité
    00:00 +14°C° 0 mm 1 m/s 752 mmHg 81%
    01:00 +14°C° 0 mm 1 m/s 752 mmHg 82%
    02:00 +14°C° 0 mm 1 m/s 752 mmHg 83%
    03:00 +14°C° 0 mm 1 m/s 752 mmHg 82%
    04:00 +14°C° 0 mm 1 m/s 752 mmHg 82%
    05:00 +14°C° 0 mm 1 m/s 752 mmHg 81%
    06:00 +16°C° 0,1 mm 1 m/s 752 mmHg 76%
    07:00 +19°C° 0,1 mm 1 m/s 752 mmHg 70%
    08:00 +21°C° 0,1 mm 1 m/s 752 mmHg 65%
    09:00 +22°C° 0,7 mm 1 m/s 752 mmHg 62%
    10:00 +23°C° 0,7 mm 1 m/s 751 mmHg 60%
    11:00 +24°C° 0,7 mm 1 m/s 751 mmHg 58%
    12:00 +24°C° 0,2 mm 1 m/s 751 mmHg 55%
    13:00 +25°C° 0,2 mm 1 m/s 751 mmHg 52%
    14:00 +25°C° 0,2 mm 1 m/s 750 mmHg 49%
    15:00 +25°C° 0,4 mm 1 m/s 750 mmHg 55%
    16:00 +24°C° 0,4 mm 1 m/s 750 mmHg 61%
    17:00 +23°C° 0,4 mm 2 m/s 750 mmHg 67%
    18:00 +21°C° 0,4 mm 2 m/s 750 mmHg 73%
    19:00 +19°C° 0,4 mm 2 m/s 750 mmHg 78%
    20:00 +18°C° 0,4 mm 2 m/s 750 mmHg 83%
    21:00 +17°C° 0,4 mm 2 m/s 750 mmHg 85%
    22:00 +17°C° 0,4 mm 2 m/s 750 mmHg 87%
    23:00 +16°C° 0,4 mm 2 m/s 750 mmHg 89%
    Voir plus